FW5910 Weather Reports


time (UTC)temp
C
wind
direction
speed
KPH
gust
KPH
rain 1hr
cm
rain 24hr
cm
rain mn
cm
humidity
%
barometer
mb
20260507205502 18 296 1.6 6.4 0.00 0.23 0.20 41 1013.1
20260507204501 18 278 3.2 6.4 0.00 0.23 0.20 41 1012.8
20260507203459 17 128 3.2 6.4 0.00 0.23 0.20 45 1012.7
20260507202958 17 135 4.8 8.0 0.00 0.23 0.20 45 1012.6
20260507202501 18 140 4.8 8.0 0.00 0.23 0.20 45 1012.6
20260507201956 18 148 3.2 6.4 0.00 0.23 0.20 45 1012.7
20260507201453 17 210 3.2 6.4 0.00 0.23 0.20 47 1012.8
20260507200454 17 116 4.8 8.0 0.00 0.23 0.20 46 1012.7
20260507195955 17 130 4.8 8.0 0.00 0.23 0.20 46 1012.8
20260507195452 17 166 3.2 11.3 0.00 0.23 0.20 43 1012.9
20260507194950 18 182 4.8 11.3 0.00 0.23 0.20 43 1012.8
20260507193946 17 136 3.2 11.3 0.00 0.23 0.20 43 1012.9
20260507193447 17 191 3.2 8.0 0.00 0.23 0.20 47 1012.9
20260507192946 17 99 4.8 16.1 0.00 0.23 0.20 47 1013.0
20260507192446 17 167 4.8 16.1 0.00 0.23 0.20 47 1013.0
20260507191449 17 0 3.2 12.9 0.00 0.23 0.20 47 1013.1
20260507190949 16 0 4.8 12.9 0.00 0.23 0.20 49 1013.2
20260507190449 16 0 4.8 11.3 0.00 0.23 0.20 52 1013.2
20260507185949 16 121 4.8 11.3 0.00 0.23 0.20 52 1013.3
20260507184443 16 142 4.8 12.9 0.00 0.23 0.20 50 1013.4
20260507183946 16 217 3.2 12.9 0.00 0.23 0.20 52 1013.6
20260507183444 15 200 3.2 11.3 0.00 0.23 0.20 53 1013.6
20260507182444 15 119 3.2 9.7 0.00 0.23 0.20 55 1013.3
20260507181441 15 196 3.2 14.5 0.00 0.23 0.20 56 1013.6
20260507180939 15 206 3.2 14.5 0.00 0.23 0.20 58 1013.4
20260507180442 15 186 4.8 8.0 0.00 0.23 0.20 58 1013.4
20260507175941 14 136 4.8 9.7 0.00 0.23 0.20 59 1013.3
20260507175441 14 125 4.8 9.7 0.00 0.23 0.20 60 1013.3
20260507174940 14 119 3.2 8.0 0.00 0.23 0.20 65 1013.3
20260507173440 13 128 3.2 4.8 0.00 0.23 0.20 69 1013.3
20260507172935 13 128 3.2 4.8 0.00 0.23 0.20 68 1013.3
20260507172435 13 128 3.2 4.8 0.00 0.23 0.20 68 1013.4
20260507171936 13 130 3.2 4.8 0.00 0.23 0.20 68 1013.6
20260507171436 13 130 3.2 6.4 0.00 0.23 0.20 68 1013.4
20260507170935 13 130 3.2 6.4 0.00 0.23 0.20 68 1013.6
20260507165936 12 221 1.6 8.0 0.00 0.23 0.20 71 1013.6
20260507165437 12 221 3.2 8.0 0.03 0.23 0.20 72 1013.7
20260507164935 12 245 1.6 8.0 0.03 0.23 0.20 71 1013.8
20260507164433 12 188 1.6 6.4 0.05 0.23 0.20 75 1013.8
20260507163932 11 182 1.6 4.8 0.05 0.23 0.20 75 1013.8
20260507163432 11 0 4.8 9.7 0.05 0.23 0.20 74 1013.8
20260507162931 11 136 3.2 9.7 0.05 0.23 0.20 74 1013.9
20260507161932 11 28 0.0 0.0 0.08 0.23 0.20 76 1014.0
20260507161432 11 26 0.0 0.0 0.08 0.23 0.20 75 1014.1
20260507160432 11 71 0.0 1.6 0.08 0.23 0.20 74 1013.9
20260507155929 10 48 0.0 3.2 0.08 0.23 0.20 74 1013.9
20260507155430 11 48 0.0 3.2 0.05 0.20 0.18 75 1013.9
20260507154930 10 48 0.0 3.2 0.05 0.20 0.18 75 1013.9
20260507154429 10 46 0.0 1.6 0.03 0.18 0.15 75 1013.9
20260507153930 10 46 0.0 1.6 0.03 0.18 0.15 74 1013.8
20260507153429 10 47 0.0 1.6 0.03 0.18 0.15 73 1013.8
20260507152929 10 48 0.0 1.6 0.03 0.18 0.15 72 1013.6
20260507152431 10 47 0.0 1.6 0.03 0.18 0.15 72 1013.6
20260507151931 10 47 0.0 0.0 0.00 0.15 0.13 71 1013.6
20260507151428 10 47 0.0 1.6 0.00 0.15 0.13 70 1013.6
20260507150930 10 46 0.0 3.2 0.00 0.15 0.13 71 1013.4
20260507150429 10 47 0.0 3.2 0.00 0.15 0.13 71 1013.6
20260507145933 10 49 0.0 1.6 0.00 0.15 0.13 72 1013.4
20260507145431 10 49 0.0 3.2 0.00 0.15 0.13 72 1013.4
20260507144931 10 50 0.0 3.2 0.00 0.15 0.13 72 1013.4
20260507144431 10 49 0.0 3.2 0.00 0.15 0.13 72 1013.4
20260507143929 10 61 0.0 1.6 0.00 0.15 0.13 93 1013.4
20260507143429 10 63 0.0 1.6 0.00 0.15 0.13 93 1013.2
20260507142930 10 66 0.0 1.6 0.00 0.15 0.13 93 1013.1
20260507142429 10 67 0.0 1.6 0.00 0.15 0.13 93 1013.0
20260507141930 10 67 0.0 1.6 0.00 0.15 0.13 94 1012.9
20260507141427 10 67 0.0 0.0 0.00 0.15 0.13 94 1012.8
20260507140927 10 67 0.0 0.0 0.00 0.15 0.13 93 1012.9
20260507135924 10 67 0.0 1.6 0.00 0.15 0.13 94 1012.8
20260507134922 10 67 0.0 1.6 0.00 0.15 0.13 94 1012.8
20260507133918 10 67 0.0 1.6 0.00 0.15 0.13 94 1012.6
20260507133416 10 67 0.0 1.6 0.00 0.15 0.13 94 1012.7
20260507132915 10 67 0.0 1.6 0.00 0.15 0.13 94 1012.6
20260507131914 9 202 0.0 1.6 0.00 0.15 0.13 95 1012.2
20260507131413 9 203 0.0 1.6 0.00 0.15 0.13 95 1012.1
20260507130909 9 148 0.0 0.0 0.00 0.15 0.13 95 1012.1
20260507130407 9 148 0.0 0.0 0.00 0.15 0.13 95 1012.0
20260507125907 9 148 0.0 1.6 0.00 0.15 0.13 95 1012.0
20260507125405 8 148 0.0 1.6 0.00 0.15 0.13 95 1012.0
20260507124903 8 148 0.0 1.6 0.00 0.15 0.13 95 1012.0
20260507124404 8 40 0.0 0.0 0.00 0.15 0.13 95 1012.2
20260507123906 8 40 0.0 0.0 0.00 0.15 0.13 95 1012.0
20260507123403 8 40 0.0 1.6 0.00 0.15 0.13 95 1011.9
20260507122903 8 39 0.0 1.6 0.00 0.15 0.13 95 1011.9
20260507122404 8 42 0.0 1.6 0.00 0.15 0.13 95 1012.0
20260507121904 8 355 0.0 0.0 0.00 0.15 0.13 95 1011.8
20260507120902 8 299 0.0 1.6 0.00 0.15 0.13 94 1011.5
20260507115903 9 102 0.0 1.6 0.00 0.15 0.13 95 1011.5
20260507115402 8 214 0.0 1.6 0.00 0.15 0.13 94 1011.5
20260507114903 8 221 0.0 1.6 0.00 0.15 0.13 94 1011.5
20260507114400 8 350 0.0 1.6 0.00 0.15 0.13 94 1011.6
20260507113350 9 350 0.0 1.6 0.00 0.15 0.13 94 1011.7
20260507112844 9 249 0.0 1.6 0.00 0.15 0.13 95 1011.6
20260507112337 9 249 0.0 0.0 0.00 0.15 0.13 94 1011.5
20260507111335 8 249 0.0 1.6 0.00 0.15 0.13 95 1011.3
20260507110334 8 249 0.0 1.6 0.00 0.15 0.13 94 1011.3
20260507105833 8 238 0.0 1.6 0.00 0.15 0.13 94 1011.3
20260507105333 8 238 0.0 1.6 0.00 0.15 0.13 93 1011.3
20260507104835 9 152 0.0 1.6 0.00 0.15 0.13 92 1011.3
20260507104332 9 151 0.0 1.6 0.00 0.15 0.13 94 1011.4
20260507103833 9 91 0.0 1.6 0.00 0.15 0.13 94 1011.4
20260507103331 9 91 0.0 1.6 0.00 0.15 0.13 94 1011.5
20260507102835 9 86 0.0 1.6 0.00 0.15 0.13 93 1011.5
20260507102332 8 337 0.0 1.6 0.00 0.15 0.13 93 1011.4
20260507101834 8 280 0.0 1.6 0.00 0.15 0.13 91 1011.3
20260507101331 9 234 0.0 1.6 0.00 0.15 0.13 90 1011.2
20260507100832 10 161 0.0 1.6 0.00 0.15 0.13 91 1011.0
20260507100329 10 146 0.0 3.2 0.00 0.15 0.13 90 1011.0
20260507095330 9 118 0.0 4.8 0.00 0.15 0.13 91 1011.0
20260507094833 10 224 1.6 4.8 0.00 0.15 0.13 91 1011.0
20260507094330 10 257 0.0 3.2 0.00 0.15 0.13 91 1010.9
20260507093836 10 96 0.0 3.2 0.00 0.15 0.13 92 1011.0
20260507093333 10 96 1.6 3.2 0.00 0.15 0.13 91 1011.3
20260507092835 10 206 1.6 3.2 0.00 0.15 0.13 91 1011.4
20260507092331 10 163 0.0 3.2 0.00 0.15 0.13 91 1011.4
20260507091834 10 273 1.6 6.4 0.00 0.15 0.13 91 1011.3
20260507091332 10 250 1.6 6.4 0.00 0.15 0.13 91 1011.4
20260507090834 10 339 1.6 3.2 0.00 0.15 0.13 91 1011.3
20260507090332 10 234 1.6 3.2 0.00 0.15 0.13 91 1011.0
20260507085833 10 275 1.6 6.4 0.00 0.15 0.13 92 1011.0
20260507085329 10 232 3.2 6.4 0.00 0.15 0.13 91 1011.2
20260507084831 10 224 1.6 3.2 0.00 0.15 0.13 92 1011.3
20260507083832 10 173 0.0 1.6 0.00 0.15 0.13 91 1011.5
20260507083329 10 159 0.0 0.0 0.00 0.15 0.13 92 1011.5
20260507082830 10 169 0.0 0.0 0.00 0.15 0.13 92 1011.5
20260507082323 10 211 0.0 0.0 0.00 0.15 0.13 92 1011.4
20260507081312 10 87 1.6 4.8 0.00 0.15 0.13 92 1011.2
20260507080812 10 87 1.6 4.8 0.03 0.15 0.13 91 1011.3
20260507080311 10 221 1.6 4.8 0.05 0.15 0.13 92 1011.5
20260507075811 10 239 1.6 4.8 0.10 0.15 0.13 92 1011.5
20260507074811 10 165 0.0 1.6 0.13 0.15 0.13 91 1010.9
20260507074312 10 198 0.0 3.2 0.13 0.15 0.13 90 1011.0
20260507073812 10 199 0.0 3.2 0.13 0.15 0.13 90 1011.0
20260507073311 10 68 1.6 4.8 0.13 0.15 0.13 91 1011.2
20260507072811 10 77 1.6 4.8 0.13 0.15 0.13 89 1011.0
20260507072311 11 215 1.6 6.4 0.13 0.15 0.13 90 1011.2
20260507071807 11 77 3.2 6.4 0.13 0.15 0.13 89 1011.2
20260507071306 11 109 3.2 6.4 0.10 0.13 0.10 88 1011.3
20260507070805 11 92 0.0 4.8 0.10 0.13 0.10 87 1011.3
20260507070305 11 159 0.0 1.6 0.05 0.08 0.05 86 1011.3
20260507065803 12 248 4.8 11.3 0.03 0.05 0.03 84 1011.2
20260507065300 12 96 4.8 11.3 0.00 0.03 0.00 81 1011.0
20260507064802 12 93 1.6 9.7 0.00 0.03 0.00 79 1011.0
20260507064303 12 163 1.6 6.4 0.00 0.03 0.00 80 1011.3
20260507063801 12 257 1.6 6.4 0.00 0.03 0.00 82 1011.4
20260507063302 12 259 1.6 8.0 0.00 0.03 0.00 81 1010.7
20260507062802 12 323 1.6 8.0 0.00 0.03 0.00 82 1010.4
20260507062301 12 219 0.0 1.6 0.00 0.03 0.00 79 1010.1
20260507061801 12 219 0.0 1.6 0.00 0.03 0.00 75 1010.2
20260507061301 12 219 0.0 3.2 0.00 0.03 0.00 74 1010.2
20260507060801 12 218 0.0 3.2 0.00 0.03 0.00 76 1010.2
20260507060302 12 193 0.0 1.6 0.00 0.03 0.00 76 1010.2
20260507055803 12 215 0.0 4.8 0.00 0.03 0.03 75 1010.1
20260507055300 12 157 1.6 4.8 0.00 0.03 0.03 74 1010.1
20260507054802 12 107 0.0 4.8 0.03 0.03 0.03 75 1010.1
20260507054301 12 153 0.0 1.6 0.03 0.03 0.03 77 1010.1
20260507053801 12 222 1.6 9.7 0.03 0.03 0.03 78 1010.2
20260507053301 13 232 4.8 12.9 0.03 0.03 0.03 75 1010.2
20260507052801 12 91 6.4 12.9 0.03 0.03 0.03 74 1010.3
20260507052306 12 49 4.8 16.1 0.03 0.03 0.03 78 1010.2
20260507051808 11 84 3.2 16.1 0.03 0.03 0.03 81 1010.3
20260507051301 11 200 3.2 6.4 0.03 0.03 0.03 84 1010.6
20260507050802 11 98 1.6 6.4 0.03 0.03 0.03 83 1011.2
20260507050301 11 112 1.6 3.2 0.03 0.03 0.03 86 1011.3
20260507045802 11 150 1.6 4.8 0.03 0.03 0.03 83 1011.3
20260507045301 12 279 1.6 9.7 0.03 0.03 0.00 83 1011.3
20260507044801 12 282 6.4 16.1 0.00 0.00 0.00 79 1011.3
20260507044301 12 45 6.4 16.1 0.00 0.00 0.00 78 1011.2
20260507043801 13 67 3.2 14.5 0.00 0.00 0.00 78 1011.3
20260507043302 13 323 0.0 6.4 0.00 0.00 0.00 75 1010.1
20260507042801 13 273 0.0 1.6 0.00 0.00 0.00 74 1009.3
20260507042301 13 273 0.0 1.6 0.00 0.00 0.00 75 1009.3
20260507041804 13 273 0.0 1.6 0.00 0.00 0.00 74 1009.5
20260507041303 13 273 0.0 1.6 0.00 0.00 0.00 73 1009.6
20260507040803 13 273 0.0 1.6 0.00 0.00 0.00 74 1009.6
20260507040301 13 276 0.0 3.2 0.00 0.00 0.00 74 1009.6
20260507035801 13 108 0.0 3.2 0.00 0.00 0.00 74 1009.5
20260507035301 13 45 0.0 1.6 0.00 0.00 0.00 71 1009.6
20260507034757 13 123 0.0 1.6 0.00 0.00 0.00 67 1009.5
20260507034251 13 252 0.0 1.6 0.00 0.00 0.00 72 1009.5
20260507033744 14 161 0.0 1.6 0.00 0.00 0.00 70 1009.5
20260507033238 14 53 0.0 1.6 0.00 0.00 0.00 68 1009.6
20260507032732 14 55 0.0 3.2 0.00 0.00 0.00 68 1009.5
20260507032230 14 55 0.0 3.2 0.00 0.00 0.00 68 1009.6
20260507031731 14 254 0.0 1.6 0.00 0.00 0.00 65 1009.6
20260507031230 15 254 0.0 1.6 0.00 0.00 0.00 66 1009.5
20260507030729 15 254 0.0 1.6 0.00 0.00 0.00 63 1009.5
20260507030230 15 254 0.0 1.6 0.00 0.00 0.00 64 1009.4
20260507025730 15 254 0.0 1.6 0.00 0.00 0.00 63 1009.3
20260507025229 16 254 0.0 1.6 0.00 0.00 0.00 63 1009.3
20260507024730 16 285 0.0 1.6 0.00 0.00 0.00 63 1009.2
20260507024230 16 285 0.0 1.6 0.00 0.00 0.00 62 1009.2
20260507023730 16 228 0.0 1.6 0.00 0.00 0.00 57 1009.1
20260507023231 16 227 0.0 1.6 0.00 0.00 0.00 59 1009.2
20260507022729 16 228 0.0 1.6 0.00 0.00 0.00 61 1009.2
20260507022232 16 223 0.0 1.6 0.00 0.00 0.00 59 1009.1
20260507021733 16 252 0.0 1.6 0.00 0.00 0.00 60 1009.2
20260507021231 17 244 0.0 1.6 0.00 0.00 0.00 56 1009.1
20260507020729 17 152 0.0 0.0 0.00 0.00 0.00 54 1009.1
20260507020230 17 152 0.0 1.6 0.00 0.00 0.00 54 1009.1
20260507015729 17 152 0.0 1.6 0.00 0.00 0.00 56 1009.1
20260507015230 17 152 0.0 1.6 0.00 0.00 0.00 54 1009.2
20260507014730 17 69 0.0 1.6 0.00 0.00 0.00 55 1009.3
20260507014232 17 68 0.0 1.6 0.00 0.00 0.00 56 1009.4
20260507013729 17 69 1.6 4.8 0.00 0.00 0.00 56 1009.4
20260507013230 17 63 1.6 4.8 0.00 0.00 0.00 54 1009.5
20260507012729 18 35 0.0 3.2 0.00 0.00 0.00 51 1009.5
20260507011729 18 223 0.0 1.6 0.00 0.00 0.00 49 1009.4
20260507011229 18 223 0.0 1.6 0.00 0.00 0.00 49 1009.3
20260507010729 19 223 0.0 1.6 0.00 0.00 0.00 52 1009.3
20260507010230 19 223 0.0 1.6 0.00 0.00 0.00 49 1009.3
20260507005229 19 223 0.0 0.0 0.00 0.00 0.00 46 1009.4
20260507004729 20 223 0.0 1.6 0.00 0.00 0.00 46 1009.4
20260507004230 19 223 0.0 1.6 0.00 0.00 0.00 46 1009.5
20260507003728 19 223 0.0 1.6 0.00 0.00 0.00 45 1009.5
20260507003229 20 219 0.0 1.6 0.00 0.00 0.00 47 1009.5
20260507002729 20 218 0.0 1.6 0.00 0.00 0.00 45 1009.5
20260507001729 19 207 1.6 4.8 0.00 0.00 0.00 44 1009.7
20260507001230 20 229 0.0 4.8 0.00 0.00 0.00 44 1009.7
20260507000729 20 259 0.0 6.4 0.00 0.00 0.00 43 1009.8
20260507000229 20 212 1.6 6.4 0.00 0.00 0.00 43 1009.7
20260506235729 20 169 1.6 4.8 0.00 0.00 0.00 43 1009.7
20260506235229 20 313 1.6 4.8 0.00 0.00 0.00 40 1009.6
20260506234730 21 234 1.6 4.8 0.00 0.00 0.00 39 1009.6
20260506234229 21 159 1.6 4.8 0.00 0.00 0.00 40 1009.6
20260506233729 21 234 1.6 4.8 0.00 0.00 0.00 38 1009.7
20260506232729 21 286 3.2 9.7 0.00 0.00 0.00 40 1009.7
20260506232231 21 223 1.6 9.7 0.00 0.00 0.00 37 1009.6
20260506231226 21 241 1.6 8.0 0.00 0.00 0.00 38 1009.7
20260506230726 21 229 3.2 8.0 0.00 0.00 0.00 38 1009.7
20260506230226 21 275 3.2 8.0 0.00 0.00 0.00 38 1009.7
20260506225725 21 269 3.2 8.0 0.00 0.00 0.00 38 1009.8
20260506225226 21 229 1.6 8.0 0.00 0.00 0.00 39 1009.8
20260506224726 21 184 1.6 4.8 0.00 0.00 0.00 38 1010.0
20260506223724 21 153 1.6 6.4 0.00 0.00 0.00 39 1010.1
20260506223224 20 244 3.2 9.7 0.00 0.00 0.00 39 1010.2
20260506222722 21 223 3.2 9.7 0.00 0.00 0.00 38 1010.3
20260506222221 21 254 3.2 9.7 0.00 0.00 0.00 36 1010.5
20260506221718 21 239 3.2 9.7 0.00 0.00 0.00 37 1010.5
20260506221219 21 274 3.2 9.7 0.00 0.00 0.00 37 1010.5
20260506220214 21 115 3.2 6.4 0.00 0.00 0.00 35 1010.7
20260506215712 21 229 3.2 9.7 0.00 0.00 0.00 36 1010.8
20260506214712 21 228 3.2 8.0 0.00 0.00 0.00 36 1011.0
20260506214211 21 192 3.2 11.3 0.00 0.00 0.00 33 1011.2
20260506213212 20 270 3.2 11.3 0.00 0.00 0.00 35 1011.5
20260506212713 20 209 4.8 12.9 0.00 0.00 0.00 35 1011.6
20260506212213 20 242 4.8 14.5 0.00 0.00 0.00 34 1011.7
20260506211708 21 175 3.2 14.5 0.00 0.00 0.00 34 1011.8
20260506205709 20 193 3.2 11.3 0.00 0.00 0.00 33 1012.0